BURGAS current weather conditions

sailwx.info

Wind from 360 at 9 knots

Air temperature 1.0° C
Visibility: greater than 5.4 NM
Dewpoint -2.0° C

Last reported at 2014-Nov-26 09:30 UTC.
Time now 2014-Nov-26 11:18 UTC

Location: N 42°29' E 027°29'.
View on Google Maps.

See reports from other nearby stations

  
Tides and Currents Weather Stations Pressure Air Temp Water Temp Dewpoint Dewpoint Depression Visibility Wind Speed Wind Dir Waves Ship Positions
date/time (UTC)wind fromknots sea level pressurealtimeterstation pressurevisibilityair tempwater tempwave heightnotes
2014-Nov-26 10:30 360 9 5.4 2.0
2014-Nov-26 10:00 340 9 5.4 2.0
2014-Nov-26 09:30 360 9 5.4 1.0
2014-Nov-26 09:00 350 9 5.4 1.0
2014-Nov-26 08:30 350 11 4.9-0.0
2014-Nov-26 08:00 340 7 5.4-0.0
2014-Nov-26 07:30 330 13 5.4-0.0
2014-Nov-26 07:00 350 13 5.4-0.0
2014-Nov-26 06:30 350 15 5.4-0.0
2014-Nov-26 06:00 360 17 5.4-0.0
2014-Nov-26 05:30 360 15 5.4-0.0
2014-Nov-26 05:00 350 15 5.4-0.0
2014-Nov-26 04:30 360 17 5.4-0.0
2014-Nov-26 04:00 360 15 5.4-0.0
2014-Nov-26 03:30 360 15 5.4-0.0
2014-Nov-26 03:00 360 13 5.4-0.0
2014-Nov-26 02:30 360 15 5.4-0.0
2014-Nov-26 02:00 010 11 5.4-0.0
2014-Nov-26 01:30 010 13 5.4-0.0
2014-Nov-26 01:00 010 11 5.4-0.0
2014-Nov-26 00:30 360 11 5.4-0.0
2014-Nov-26 00:00 360 13 5.4-0.0
2014-Nov-25 23:30 360 11 5.4-0.0
2014-Nov-25 23:00 350 11 5.4-0.0
2014-Nov-25 22:30 360 11 5.4-0.0
2014-Nov-25 22:00 350 11 5.4 1.0
2014-Nov-25 21:30 350 15 5.4 1.0
2014-Nov-25 21:00 350 13 5.4 1.0
2014-Nov-25 20:30 350 11 5.4 1.0
2014-Nov-25 20:00 350 13 5.4 1.0
2014-Nov-25 19:30 350 13 5.4 1.0
2014-Nov-25 19:00 350 9 5.4 1.0
2014-Nov-25 18:30 350 11 5.4 2.0
2014-Nov-25 18:00 340 11 5.4 2.0
2014-Nov-25 17:30 350 9 5.4 2.0
2014-Nov-25 17:00 010 9 5.4 2.0
2014-Nov-25 16:30 350 9 5.4 2.0
2014-Nov-25 16:00 020 7 5.4 2.0
2014-Nov-25 15:30 280 7 5.4 3.0
2014-Nov-25 15:00 360 17 gusting 29 5.4 3.0
2014-Nov-25 14:30 310 9 5.4 3.0
2014-Nov-25 14:00 020 13 5.4 3.0
2014-Nov-25 13:30 010 17 5.4 3.0
2014-Nov-25 13:00 010 15 5.4 4.0
2014-Nov-25 12:30 010 15 5.4 5.0
2014-Nov-25 12:00 360 17 5.4 4.0
2014-Nov-25 11:30 360 21 5.4 4.0
2014-Nov-25 11:00 360 21 5.4 5.0
2014-Nov-25 10:30 360 23 5.4 4.0
2014-Nov-25 10:00 360 23 5.4 5.0
2014-Nov-25 09:30 360 23 5.4 4.0
2014-Nov-25 09:00 010 21 5.4 4.0
2014-Nov-25 08:30 360 25 5.4 4.0
2014-Nov-25 08:00 360 19 gusting 29 5.4 4.0
2014-Nov-25 07:30 360 19 5.4 3.0
2014-Nov-25 07:00 360 21 4.3 3.0
2014-Nov-25 06:30 010 21 3.8 2.0
2014-Nov-25 06:00 010 21 3.2 2.0
2014-Nov-25 05:30 360 23 gusting 33 2.7 2.0
2014-Nov-25 05:00 010 21 4.9 2.0
2014-Nov-25 04:30 010 21 4.9 2.0
2014-Nov-25 04:00 360 17 4.9 2.0
2014-Nov-25 03:30 330 11 5.4 2.0
2014-Nov-25 03:00 340 13 5.4 2.0
2014-Nov-25 02:30 010 17 5.4 2.0
2014-Nov-25 02:00 010 17 5.4 2.0
2014-Nov-25 01:30 010 15 5.4 2.0
2014-Nov-25 01:00 350 15 5.4 2.0
2014-Nov-25 00:30 360 15 5.4 2.0
2014-Nov-25 00:00 360 17 5.4 2.0
2014-Nov-24 23:30 350 9 5.4 2.0
2014-Nov-24 23:00 350 15 5.4 1.0
2014-Nov-24 22:30 350 15 5.4 1.0
2014-Nov-24 22:00 340 9 5.4 1.0
2014-Nov-24 21:30 340 9 5.4 1.0
2014-Nov-24 21:00 340 11 5.4 2.0
2014-Nov-24 20:30 350 7 5.4 3.0
2014-Nov-24 20:00 340 7 5.4 3.0
2014-Nov-24 19:30 360 9 5.4 4.0
2014-Nov-24 19:00 010 13 5.4 4.0
2014-Nov-24 18:30 020 13 5.4 4.0
2014-Nov-24 18:00 010 13 5.4 4.0
2014-Nov-24 17:30 010 15 5.4 4.0
2014-Nov-24 17:00 010 13 5.4 4.0
2014-Nov-24 16:30 010 13 5.4 4.0
2014-Nov-24 16:00 010 11 5.4 4.0
2014-Nov-24 15:30 360 9 5.4 4.0
2014-Nov-24 15:00 360 9 5.4 4.0 Light rain.
2014-Nov-24 14:30 350 9 5.4 4.0 Light rain.
2014-Nov-24 14:00 350 13 5.4 4.0 Light rain.
2014-Nov-24 13:30 350 11 5.4 4.0 Light rain.
2014-Nov-24 13:00 360 13 5.4 4.0
2014-Nov-24 12:30 360 13 5.4 4.0 Light rain.
2014-Nov-24 12:00 360 11 5.4 4.0 Light rain.
2014-Nov-24 11:30 360 11 5.4 4.0 Light rain.
2014-Nov-24 11:00 320 7 5.4 4.0 Light rain.